W1EUM Weather Reports


time (UTC)temp
F
wind
direction
speed
knots
gust
knots
rain 1hr
in
rain 24hr
in
rain mn
in
humidity
%
barometer
mb
20260506044550 51 225 0.0 0.0 0.00 0.00 0.00 60 1008.5
20260506043141 53 221 0.0 0.0 0.00 0.00 0.00 70 1008.4
20260506041548 53 208 0.0 0.0 0.00 0.00 0.00 70 1008.3
20260506040039 53 177 0.0 0.0 0.00 0.00 0.00 70 1008.2
20260506034534 54 221 0.0 0.0 0.00 0.00 0.00 72 1008.1
20260506033034 53 189 0.0 0.0 0.00 0.00 0.00 71 1008.0
20260506031534 53 208 0.0 0.0 0.00 0.00 0.00 71 1008.0
20260506030033 54 186 0.0 0.0 0.00 0.00 0.00 73 1008.2
20260506024536 55 192 0.0 0.0 0.00 0.00 0.00 74 1008.1
20260506023031 55 205 0.0 0.0 0.00 0.00 0.00 75 1008.1
20260506021531 54 169 0.0 0.0 0.00 0.00 0.00 70 1008.4
20260506020030 54 179 0.0 0.0 0.00 0.00 0.00 74 1008.4
20260506014530 55 154 0.0 0.0 0.00 0.00 0.00 74 1008.2
20260506013032 55 226 0.0 0.0 0.00 0.00 0.00 75 1008.2
20260506011544 54 30 0.0 0.0 0.00 0.00 0.00 73 1008.3
20260506010029 53 160 0.0 0.0 0.00 0.00 0.00 73 1008.0
20260506004539 56 231 0.0 0.0 0.00 0.00 0.00 74 1007.7
20260506003029 58 189 0.0 0.0 0.00 0.00 0.00 73 1006.9
20260506001525 58 138 0.0 0.0 0.00 0.00 0.00 73 1006.9
20260506000026 57 224 0.0 0.0 0.00 0.00 0.00 74 1007.0
20260505234528 58 219 0.0 0.0 0.00 0.00 0.00 73 1006.9
20260505233030 58 238 0.0 0.0 0.00 0.00 0.00 73 1006.8
20260505231527 56 226 0.0 0.0 0.00 0.00 0.00 75 1005.5
20260505230024 56 168 0.0 0.0 0.00 0.00 0.00 75 1005.4
20260505224522 56 176 0.0 0.0 0.00 0.00 0.00 74 1005.0
20260505223021 56 172 0.0 0.0 0.00 0.00 0.00 74 1004.7
20260505221521 56 185 0.0 0.0 0.00 0.00 0.00 74 1004.4
20260505220123 56 176 0.0 0.0 0.00 0.00 0.00 74 1004.5
20260505214526 57 179 0.0 0.0 0.00 0.00 0.00 74 1004.4
20260505213021 57 184 0.0 0.0 0.00 0.00 0.00 73 1004.4
20260505211517 58 186 0.0 0.0 0.00 0.00 0.00 72 1004.5
20260505210015 58 153 0.0 0.0 0.00 0.00 0.00 73 1004.6
20260505204516 58 174 0.0 0.0 0.00 0.00 0.00 73 1004.4
20260505203013 58 172 0.0 0.0 0.00 0.00 0.00 73 1004.5
20260505201512 58 216 0.0 0.0 0.00 0.00 0.00 73 1004.6
20260505200009 57 176 0.0 0.0 0.00 0.00 0.00 74 1004.7
20260505194513 57 219 0.0 0.0 0.00 0.00 0.00 74 1005.2
20260505193002 57 190 0.0 0.0 0.00 0.00 0.00 74 1005.4
20260505191501 58 212 0.0 0.0 0.00 0.00 0.00 74 1005.7
20260505190059 57 170 0.0 0.0 0.00 0.00 0.00 74 1005.7
20260505184557 56 200 0.0 0.0 0.00 0.00 0.00 74 1005.9
20260505183056 57 208 0.0 0.0 0.00 0.00 0.00 74 1006.0
20260505181554 57 203 0.0 0.0 0.00 0.00 0.00 74 1006.0
20260505180053 58 162 0.0 0.0 0.00 0.00 0.00 74 1006.1
20260505174551 57 207 0.0 0.0 0.00 0.00 0.00 74 1006.5
20260505173049 57 165 0.0 0.0 0.00 0.00 0.00 74 1006.7
20260505171548 58 186 0.0 0.0 0.00 0.00 0.00 74 1006.7
20260505170045 57 208 0.0 0.0 0.00 0.00 0.00 74 1007.0
20260505164554 57 188 0.0 0.0 0.00 0.00 0.00 74 1007.1
20260505163043 57 186 0.0 0.0 0.00 0.00 0.00 74 1007.5
20260505161640 56 217 0.0 0.0 0.00 0.00 0.00 74 1007.7
20260505153040 53 223 0.0 0.0 0.00 0.00 0.00 67 1008.4
20260505151536 54 224 0.0 0.0 0.00 0.00 0.00 72 1008.4
20260505124541 54 197 0.0 0.0 0.00 0.00 0.00 75 1008.2
20260505123029 53 176 0.0 0.0 0.00 0.00 0.00 75 1008.2
20260505121533 53 180 0.0 0.0 0.00 0.00 0.00 74 1008.4
20260505120037 51 203 0.0 0.0 0.00 0.00 0.00 73 1008.6
20260505114527 52 208 0.0 0.0 0.00 0.00 0.00 73 1008.7
20260505113026 51 212 0.0 0.0 0.00 0.00 0.00 67 1008.7
20260505111525 48 203 0.0 0.0 0.00 0.00 0.00 44 1008.7
20260505101518 48 148 0.0 0.0 0.00 0.00 0.00 55 1008.4
20260505100017 0 0.0 0.0 0.00 0.00 0.00 1008.3
20260505094512 0 0.0 0.0 0.00 0.00 0.00 1008.4
20260505093006 0 0.0 0.0 0.00 0.00 0.00 1008.3
20260505091502 0 0.0 0.0 0.00 0.00 0.00 1008.3
20260505090058 0 0.0 0.0 0.00 0.00 0.00 1008.4
20260505084555 0 0.0 0.0 0.00 0.00 0.00 1008.5
20260505083053 0 0.0 0.0 0.00 0.00 0.00 1008.4
20260505081550 0 0.0 0.0 0.00 0.00 0.00 1008.4
20260505080040 0 0.0 0.0 0.00 0.00 0.00 1008.6
20260505074536 0 0.0 0.0 0.00 0.00 0.00 1008.5
20260505073033 0 0.0 0.0 0.00 0.00 0.00 1008.4
20260505071529 49 169 0.0 0.0 0.00 0.00 0.00 70 1008.4
20260505070036 49 203 0.0 0.0 0.00 0.00 0.00 72 1008.3
20260505064525 49 232 0.0 0.0 0.00 0.00 0.00 74 1008.2
20260505063029 50 212 0.0 0.0 0.00 0.00 0.00 74 1008.3
20260505061525 50 210 0.0 0.0 0.00 0.00 0.00 75 1008.3
20260505060019 51 210 0.0 0.0 0.00 0.00 0.00 75 1008.3